Location: Linz
(48.3300°N, 14.3000°E)
Time: 10:32:26
(UTC+02:00)

Vanguard 1 - Visible Passes

Search period start: 27 April 2018 00:00
Search period end: 07 May 2018 00:00
Orbit: 650 x 3833 km, 34.2° (Epoch: 26 April)

Date Brightness Start Highest point End Pass type
(mag) Time Alt. Az. Time Alt. Az. Time Alt. Az.
27 Apr 12.2 04:14:58 10° SSW 04:14:58 10° SSW 04:15:33 10° S visible
02 May 11.3 20:58:14 10° SSW 21:00:49 13° S 21:03:05 10° SE visible
03 May 11.1 21:18:12 10° SSW 21:21:31 15° S 21:23:47 12° SE visible
04 May 11.0 21:38:34 10° SW 21:42:11 17° S 21:43:48 15° SSE visible
05 May 10.9 21:59:11 10° SW 22:02:50 17° S 22:03:47 16° S visible
06 May 11.0 22:20:01 10° SW 22:23:28 17° S 22:23:45 17° S visible
